Gaylord, MI

12:57 AM EST on December 13, 2017 (GMT -0500)
Otsego County

Weather History for KGLR - September, 2013

Change the Weather History Date:

Saturday, September 21, 2013

  Actual Average Record
Temperature  
Mean Temperature 52 °F -  
Max Temperature 57 °F 63 °F 87 °F (2017)
Min Temperature 44 °F 44 °F 28 °F (1956)
Degree Days  
Heating Degree Days 13    
Growing Degree Days 2 (Base 50)    
Moisture  
Dew Point 46 °F    
Average Humidity 85    
Maximum Humidity 94    
Minimum Humidity 68    
Precipitation  
Precipitation 0.05 in - - ()
Sea Level Pressure  
Sea Level Pressure 29.79 in    
Wind  
Wind Speed 5 mph (NW)    
Max Wind Speed 10 mph    
Max Gust Speed 21 mph    
Visibility 9 miles    
Events Rain    
Averages and records for this station are not official NWS values.
T = Trace of Precipitation, MM = Missing Value Source: NWS Daily Summary

Daily Weather History Graph

Daily Weather History Graph

Search for Another Location

Airport or City:

Trip Planner

Search our weather history database for the weather conditions in past years. The results will help you decide how hot, cold, wet, or windy it might be!

Date:

Astronomy

Sep. 21, 2013 Rise Set
Actual Time 7:24 AM EDT 7:37 PM EDT
Civil Twilight 6:55 AM EDT 8:07 PM EDT
Nautical Twilight 6:21 AM EDT 8:41 PM EDT
Astronomical Twilight 5:45 AM EDT 9:16 PM EDT
Moon 8:39 PM EDT (9/21) 9:50 AM EDT (9/21)
Length of Visible Light 13h 11m
Length of Day
12h 12m
Waning Gibbous, 94% of the Moon is Illuminated
Sep 21
Waning Gibbous
Sep 26
Last Quarter
Oct 4
New
Oct 11
First Quarter
Oct 18
Full

Hourly Weather History & Observations

Time (EDT) Temp. Windchill Dew Point Humidity Pressure Visibility Wind Dir Wind Speed Gust Speed Precip Events Conditions
12:40 AM 60.8 °F - 57.2 °F 88% 29.72 in 10.0 mi Variable 6.9 mph - N/A   Overcast
12:53 AM 57.9 °F - 54.0 °F 87% 29.71 in 10.0 mi Variable 5.8 mph - N/A   Overcast
1:41 AM 57.2 °F - 53.6 °F 88% 29.71 in 10.0 mi Variable 3.5 mph - N/A   Overcast
1:53 AM 55.9 °F - 53.1 °F 90% 29.72 in 10.0 mi Variable 4.6 mph - N/A   Overcast
2:02 AM 55.4 °F - 53.6 °F 94% 29.72 in 10.0 mi Variable 5.8 mph - N/A   Overcast
2:38 AM 55.4 °F - 53.6 °F 94% 29.72 in 10.0 mi NNW 4.6 mph - N/A   Overcast
2:53 AM 55.9 °F - 53.1 °F 90% 29.72 in 10.0 mi North 6.9 mph - N/A   Overcast
3:38 AM 55.4 °F - 51.8 °F 88% 29.72 in 10.0 mi Variable 3.5 mph - N/A   Overcast
3:53 AM 55.0 °F - 51.1 °F 86% 29.72 in 10.0 mi Variable 5.8 mph - N/A   Overcast
4:30 AM 53.6 °F - 50.0 °F 88% 29.72 in 10.0 mi Variable 3.5 mph - 0.00 in   Overcast
4:39 AM 53.6 °F - 50.0 °F 88% 29.72 in 10.0 mi Calm Calm - 0.00 in   Overcast
4:53 AM 54.0 °F - 50.0 °F 86% 29.72 in 10.0 mi Calm Calm - 0.00 in   Overcast
5:05 AM 53.6 °F - 50.0 °F 88% 29.72 in 10.0 mi Variable 3.5 mph - N/A   Overcast
5:51 AM 53.6 °F - 48.2 °F 82% 29.73 in 10.0 mi Variable 4.6 mph - N/A   Overcast
5:53 AM 53.1 °F - 48.9 °F 86% 29.73 in 10.0 mi Variable 5.8 mph - N/A   Overcast
6:39 AM 51.8 °F - 48.2 °F 88% 29.73 in 10.0 mi Variable 3.5 mph - N/A   Scattered Clouds
6:53 AM 52.0 °F - 48.0 °F 86% 29.73 in 10.0 mi Calm Calm - N/A   Mostly Cloudy
7:53 AM 52.0 °F - 48.9 °F 89% 29.74 in 10.0 mi Calm Calm - N/A   Overcast
8:53 AM 51.1 °F - 48.0 °F 89% 29.76 in 4.0 mi Variable 5.8 mph - 0.00 in Rain Light Rain
9:03 AM 50.0 °F - 48.2 °F 94% 29.75 in 2.5 mi Variable 5.8 mph - 0.01 in Rain Light Rain
9:06 AM 50.0 °F - 48.2 °F 94% 29.75 in 3.0 mi Variable 5.8 mph - 0.01 in Rain Light Rain
9:14 AM 51.8 °F - 48.2 °F 88% 29.75 in 10.0 mi Variable 3.5 mph - 0.01 in   Overcast
9:44 AM 53.6 °F - 48.2 °F 82% 29.76 in 10.0 mi Variable 6.9 mph - 0.01 in   Overcast
9:53 AM 53.1 °F - 48.0 °F 83% 29.76 in 10.0 mi Variable 6.9 mph - 0.01 in   Overcast
10:02 AM 51.8 °F - 48.2 °F 88% 29.76 in 10.0 mi NNW 8.1 mph - N/A   Overcast
10:51 AM 53.6 °F - 48.2 °F 82% 29.76 in 9.0 mi Variable 6.9 mph - 0.00 in   Overcast
10:53 AM 52.0 °F - 48.0 °F 86% 29.77 in 7.0 mi Variable 6.9 mph - 0.00 in   Overcast
11:01 AM 51.8 °F - 48.2 °F 88% 29.76 in 2.0 mi NNW 8.1 mph - 0.01 in Rain Light Rain
11:13 AM 51.8 °F - 48.2 °F 88% 29.76 in 8.0 mi Variable 4.6 mph - 0.01 in Rain Light Rain
11:53 AM 52.0 °F - 46.9 °F 83% 29.77 in 4.0 mi WNW 8.1 mph - 0.01 in Rain Light Rain
12:53 PM 51.1 °F - 45.0 °F 80% 29.78 in 10.0 mi Variable 6.9 mph 16.1 mph 0.01 in   Overcast
1:53 PM 53.1 °F - 43.0 °F 69% 29.79 in 10.0 mi WNW 5.8 mph 17.3 mph N/A   Overcast
2:06 PM 53.6 °F - 44.6 °F 72% 29.78 in 10.0 mi NW 10.4 mph 19.6 mph N/A   Overcast
2:53 PM 52.0 °F - 44.1 °F 74% 29.80 in 10.0 mi NW 9.2 mph - 0.00 in   Overcast
3:12 PM 50.0 °F - 42.8 °F 76% 29.79 in 10.0 mi NW 9.2 mph 20.7 mph N/A   Overcast
3:53 PM 51.1 °F - 43.0 °F 74% 29.82 in 10.0 mi WNW 9.2 mph - 0.00 in   Overcast
4:53 PM 50.0 °F - 39.9 °F 68% 29.82 in 10.0 mi NW 5.8 mph - N/A   Overcast
5:05 PM 50.0 °F - 41.0 °F 71% 29.81 in 10.0 mi WNW 8.1 mph 17.3 mph N/A   Overcast
5:53 PM 50.0 °F - 39.9 °F 68% 29.83 in 10.0 mi Variable 4.6 mph - N/A   Overcast
6:09 PM 50.0 °F - 41.0 °F 71% 29.82 in 10.0 mi NW 5.8 mph 16.1 mph N/A   Overcast
6:33 PM 50.0 °F - 42.8 °F 76% 29.82 in 10.0 mi WNW 4.6 mph - N/A   Overcast
6:42 PM 50.0 °F - 42.8 °F 76% 29.83 in 10.0 mi Variable 5.8 mph - N/A   Overcast
6:53 PM 50.0 °F - 41.0 °F 71% 29.84 in 10.0 mi Variable 5.8 mph 16.1 mph N/A   Overcast
7:05 PM 48.2 °F - 41.0 °F 76% 29.83 in 10.0 mi Variable 4.6 mph - N/A   Overcast
7:30 PM 46.4 °F 42.4 °F 42.8 °F 87% 29.84 in 8.0 mi NW 8.1 mph - N/A   Overcast
7:45 PM 46.4 °F 42.9 °F 42.8 °F 87% 29.84 in 10.0 mi NW 6.9 mph - 0.00 in   Overcast
7:53 PM 46.9 °F - 43.0 °F 86% 29.86 in 10.0 mi Variable 6.9 mph - 0.00 in   Overcast
8:19 PM 46.4 °F 42.4 °F 42.8 °F 87% 29.85 in 5.0 mi North 8.1 mph - 0.00 in Rain Light Rain
8:38 PM 46.4 °F 42.4 °F 42.8 °F 87% 29.86 in 10.0 mi NW 8.1 mph - 0.00 in   Overcast
8:53 PM 45.0 °F 41.8 °F 43.0 °F 93% 29.89 in 8.0 mi NW 5.8 mph - 0.00 in Rain Light Rain
9:18 PM 44.6 °F 40.7 °F 42.8 °F 93% 29.87 in 8.0 mi Variable 6.9 mph - 0.00 in Rain Light Rain
9:49 PM 44.6 °F 41.4 °F 42.8 °F 93% 29.88 in 4.0 mi NW 5.8 mph - 0.00 in Rain Light Rain
9:51 PM 44.6 °F 41.4 °F 42.8 °F 93% 29.88 in 4.0 mi NW 5.8 mph - 0.00 in Rain Light Rain
9:53 PM 44.1 °F 41.5 °F 42.1 °F 93% 29.89 in 4.0 mi NW 4.6 mph - 0.00 in Rain Light Rain
10:25 PM 44.6 °F 41.4 °F 42.8 °F 93% 29.88 in 8.0 mi Variable 5.8 mph - 0.00 in Rain Light Rain
10:53 PM 44.1 °F 41.5 °F 42.1 °F 93% 29.91 in 9.0 mi NNW 4.6 mph - 0.01 in Rain Light Rain
11:22 PM 44.6 °F 43.1 °F 42.8 °F 93% 29.90 in 9.0 mi Variable 3.5 mph - 0.00 in Rain Light Rain
11:53 PM 44.1 °F 41.5 °F 41.0 °F 89% 29.92 in 7.0 mi Variable 4.6 mph - 0.01 in Rain Light Rain